Regional Weather Roundup
Issued by NWS

Home | Current Version | Previous Version | Text Only | Print | Product List | Glossary Off
Versions: 1 2 3 4 5 6 7 8 9 10 11 12 13 14 15 16 17 18 19 20 21 22 23 24 25 26 27 28 29 30 31 32 33 34 35 36 37 38 39 40 41 42 43 44 45 46 47 48 49 50

000
ASUS43 KLSX 011059
RWRMO

WEATHER SUMMARY FOR MISSOURI
NATIONAL WEATHER SERVICE SPRINGFIELD MO
600 AM CDT MON SEP 01 2014

NOTE: "FAIR" INDICATES FEW OR NO CLOUDS BELOW 12,000 FEET WITH NO
       SIGNIFICANT WEATHER AND/OR OBSTRUCTIONS TO VISIBILITY.
       CURRENT SKY AND/OR WEATHER CONDITIONS ARE NOT AVAILABLE FOR
       CHILLICOTHE AND FARMINGTON.

MOZ001>031-035>038-043-044-053-054-011200-
...NORTHERN AND WESTERN MISSOURI...

CITY           SKY/WX    TMP DP  RH WIND       PRES   REMARKS
KANSAS CTY INT CLOUDY    66  63  90 S9        29.78R
KANSAS C DTWN  CLOUDY    68  64  87 S7        29.77R
ST JOSEPH      CLOUDY    66  64  93 SW8       29.78R
CHILLICOTHE      N/A     67  66  97 S9        29.74R
KIRKSVILLE     LGT RAIN  66  63  90 S18G29    29.68F

$$
MOZ066>068-077>081-088>096-101>105-011200-
...SOUTHWEST MISSOURI...

CITY           SKY/WX    TMP DP  RH WIND       PRES   REMARKS
SPRINGFIELD    RAIN      64  61  90 N10       30.01R
JOPLIN         LGT RAIN  64  63  96 E9        29.96R

$$
MOZ032>034-039>042-045>050-055>058-069>072-011200-
...CENTRAL MISSOURI...

CITY           SKY/WX    TMP DP  RH WIND       PRES   REMARKS
COLUMBIA       LGT RAIN  67  65  93 SW13      29.98R
JEFFERSON CITY LGT RAIN  68  65  90 W8        29.97R
ROLLA          CLOUDY    68  65  90 W18G25    29.97R
SEDALIA        LGT RAIN  67  64  90 SE15      29.89F FOG
OSAGE BEACH    CLOUDY    66  63  88 NW5       30.01R

$$
MOZ051-052-059>065-011200-
...EAST CENTRAL MISSOURI...

CITY           SKY/WX    TMP DP  RH WIND       PRES   REMARKS
ST LOUIS INTL  MOCLDY    77  71  82 SW14      29.89R
SPIRIT OF STL  PTCLDY    75  71  87 SW6       29.87R
ST CHARLES     PTCLDY    75  71  87 SW7       29.87R

$$
MOZ072>076-082>087-097>100-106>115-011200-
...SOUTH CENTRAL AND SOUTHEAST MISSOURI...

CITY           SKY/WX    TMP DP  RH WIND       PRES   REMARKS
CAPE GIRARDEAU CLOUDY    74  72  93 SW10      29.97R
FARMINGTON     MOCLDY    73  70  88 S14       29.96R
POPLAR BLUFF   CLOUDY    75  70  84 SW6       29.97R
WEST PLAINS    PTCLDY    72  69  90 S6        29.99R

$$



USA.gov is the U.S. government's official web portal to all federal, state and local government web resources and services.